TimeEDT,TemperatureF,Dew PointF,Humidity,Sea Level PressureIn,VisibilityMPH,Wind Direction,Wind SpeedMPH,Gust SpeedMPH,PrecipitationIn,Events,Conditions,WindDirDegrees,DateUTC
12:20 AM,75.2,66.2,73,30.06,10.0,ENE,19.6,25.3,N/A,,Overcast,60,2011-11-02 04:20:00
12:53 AM,75.0,68.0,79,30.06,10.0,NE,19.6,25.3,0.00,,Mostly Cloudy,50,2011-11-02 04:53:00
1:01 AM,75.2,66.2,73,30.05,10.0,NE,20.7,28.8,N/A,,Mostly Cloudy,50,2011-11-02 05:01:00
1:53 AM,75.0,68.0,79,30.04,10.0,NE,18.4,25.3,N/A,,Mostly Cloudy,40,2011-11-02 05:53:00
2:53 AM,73.9,69.1,85,30.04,9.0,NE,16.1,25.3,0.00,,Mostly Cloudy,50,2011-11-02 06:53:00
3:23 AM,75.2,68.0,78,30.04,10.0,NE,16.1,25.3,0.00,,Mostly Cloudy,40,2011-11-02 07:23:00
3:53 AM,75.0,68.0,79,30.04,10.0,ENE,13.8,24.2,0.00,,Mostly Cloudy,60,2011-11-02 07:53:00
4:53 AM,75.9,66.0,71,30.04,10.0,ENE,17.3,24.2,N/A,,Scattered Clouds,60,2011-11-02 08:53:00
5:53 AM,75.9,68.0,76,30.05,10.0,ENE,15.0,-,N/A,,Scattered Clouds,70,2011-11-02 09:53:00
6:53 AM,75.9,66.9,74,30.06,10.0,NE,15.0,26.5,0.00,Rain,Light Rain,50,2011-11-02 10:53:00
7:53 AM,75.9,66.0,71,30.08,10.0,ENE,20.7,-,0.00,,Mostly Cloudy,60,2011-11-02 11:53:00
8:53 AM,77.0,66.0,69,30.10,10.0,ENE,18.4,-,N/A,,Scattered Clouds,60,2011-11-02 12:53:00
9:53 AM,78.1,66.0,66,30.11,10.0,ENE,18.4,25.3,N/A,,Scattered Clouds,60,2011-11-02 13:53:00
10:53 AM,79.0,64.9,62,30.12,10.0,East,15.0,25.3,N/A,,Partly Cloudy,80,2011-11-02 14:53:00
11:53 AM,79.0,66.0,64,30.11,10.0,ENE,18.4,26.5,N/A,,Scattered Clouds,60,2011-11-02 15:53:00
12:53 PM,78.1,64.9,64,30.11,10.0,ENE,17.3,-,N/A,,Mostly Cloudy,60,2011-11-02 16:53:00
1:53 PM,79.0,64.0,60,30.08,10.0,ENE,17.3,-,N/A,,Mostly Cloudy,70,2011-11-02 17:53:00
2:53 PM,80.1,64.0,58,30.07,10.0,NE,18.4,-,N/A,,Scattered Clouds,50,2011-11-02 18:53:00
3:53 PM,80.1,64.0,58,30.06,10.0,NE,17.3,-,N/A,,Scattered Clouds,50,2011-11-02 19:53:00
4:53 PM,78.1,63.0,60,30.06,10.0,NE,20.7,25.3,N/A,,Scattered Clouds,40,2011-11-02 20:53:00
5:53 PM,77.0,61.0,58,30.07,10.0,NE,16.1,-,N/A,,Scattered Clouds,40,2011-11-02 21:53:00
6:53 PM,75.9,57.9,54,30.07,10.0,NE,16.1,-,N/A,,Partly Cloudy,40,2011-11-02 22:53:00
7:53 PM,75.9,59.0,56,30.08,10.0,NE,16.1,-,N/A,,Scattered Clouds,40,2011-11-02 23:53:00
8:53 PM,75.9,60.1,58,30.09,10.0,ENE,13.8,20.7,N/A,,Partly Cloudy,70,2011-11-03 00:53:00
9:53 PM,75.9,60.1,58,30.09,10.0,ENE,15.0,-,N/A,,Partly Cloudy,70,2011-11-03 01:53:00
10:53 PM,75.0,60.1,60,30.09,10.0,East,16.1,-,N/A,,Partly Cloudy,90,2011-11-03 02:53:00
11:53 PM,75.9,60.1,58,30.09,10.0,East,13.8,-,N/A,,Scattered Clouds,90,2011-11-03 03:53:00